{"data":{"norad_id":60585,"epoch":"2026-09-21T20:45:27.270144Z","epoch_age_seconds":70920,"freshness":"FRESH","line1":"1 60585U 24150C   26264.86489896  .00000417  00000+0  23493-4 0  9990","line2":"2 60585  53.1612 115.3212 0001367  94.6245 265.4914 15.34389600118006","mean_motion":15.343896,"eccentricity":0.0001367,"inclination_deg":53.1612,"raan_deg":115.3212,"arg_perigee_deg":94.6245,"mean_anomaly_deg":265.4914,"bstar":2.3493e-5,"rev_number":11800,"period_min":93.848394175769,"perigee_km":461.79900428701,"apogee_km":463.66929845979,"semimajor_km":6840.8711513734,"source":"CELESTRAK","updated_at":"2026-09-22T09:00:49.238745Z"}}